Location: Dötzum
(52.0808°N, 9.8063°E)
Time: 06:30:47
(UTC+00:00)

Meteor 2-10 Rocket - Pass Details

Date: 27 May 2022
Orbit: 733 x 885 km, 81.2° (Epoch: 26 June)

Event Time Altitude Azimuth Distance (km) Brightness Sun altitude
Rises 00:04:40 0° 347° (NNW) 3,471 8.1 -15.9°
Reaches altitude 10° 00:07:09 10° 348° (NNW) 2,514 7.2 -15.9°
Maximum altitude 00:12:53 83° 76° (ENE) 855 3.7 -15.7°
Enters shadow 00:16:52 19° 164° (SSE) 1,842 5.0 -15.5°
